Location: Vaughan
(31.9146°N, 97.1736°W)
Time: 03:56:10
(UTC+00:00)

BlueWalker 3 - Visible Passes

Search period start: 08 March 2026 00:00
Search period end: 18 March 2026 00:00
Orbit: 451 x 458 km, 53.2° (Epoch: 7 March)

Date Brightness Start Highest point End Pass type
(mag) Time Alt. Az. Time Alt. Az. Time Alt. Az.
14 Mar 4.0 12:05:17 10° NNW 12:08:15 24° NE 12:11:12 10° E visible
15 Mar 4.4 11:29:23 10° N 11:31:57 18° NE 11:34:31 10° E visible
16 Mar 4.6 10:53:37 10° N 10:55:37 14° NE 10:57:38 10° ENE visible
17 Mar 4.8 10:18:35 11° NNE 10:19:15 11° NNE 10:20:20 10° NE visible
17 Mar 1.7 11:53:30 10° NW 11:57:06 84° SW 12:00:39 10° SE visible
